Location: *
(57.8420°S, 159.8600°W)
Time: 04:20:06
(UTC+00:00)

MOS 1-B - Pass Details

Date: 18 May 2021
Orbit: 904 x 914 km, 99.4° (Epoch: 23 June)

Event Time Altitude Azimuth Distance (km) Brightness Sun altitude
Exits shadow 04:56:09 - 158° (SSE) 2,996 6.8 -19.2°
Reaches altitude 10° 04:57:07 10° 155° (SSE) 2,639 6.5 -19.3°
Maximum altitude 05:02:51 51° 79° (E) 1,153 4.5 -20.1°
Drops below altitude 10° 05:08:33 10° 3° (N) 2,617 6.8 -20.8°
Sets 05:11:02 0° 358° (N) 3,553 7.5 -21.1°
